When you browse on this site, cookies collect data to enhance your experience and personalize the content and advertising you see.
Visit our Privacy Policy to learn more. By continuing to use the site, you agree to this use of cookies and data.
  • In Spain
  • List of Countries
  • For 7 days
  • Water Temperature
  • Weather Map
  • Weather Widgets
  • user-avatar
    Login

    Hourly Weather Lubango

    Today, 17 October, Thursday

    Time Temperature Precipitation Wind Pressure Humidity
    00:00 +20°C° 0 mm 1 mps 608 mmHg 68%
    01:00 +17°C° 0 mm 0 mps 609 mmHg 66%
    02:00 +19°C° 0 mm 1 mps 608 mmHg 64%
    03:00 +19°C° 0 mm 1 mps 608 mmHg 63%
    04:00 +18°C° 0 mm 1 mps 607 mmHg 62%
    05:00 +19°C° 0 mm 1 mps 608 mmHg 59%
    06:00 +20°C° 0 mm 1 mps 609 mmHg 56%
    07:00 +22°C° 0 mm 1 mps 610 mmHg 52%
    08:00 +24°C° 0 mm 1 mps 611 mmHg 45%
    09:00 +26°C° 0 mm 2 mps 611 mmHg 37%
    10:00 +28°C° 0 mm 2 mps 612 mmHg 30%
    11:00 +28°C° 0 mm 2 mps 612 mmHg 29%
    12:00 +29°C° 0 mm 3 mps 611 mmHg 27%
    13:00 +30°C° 0 mm 3 mps 612 mmHg 22%
    14:00 +30°C° 0 mm 3 mps 611 mmHg 25%
    15:00 +29°C° 0 mm 3 mps 610 mmHg 28%
    16:00 +28°C° 0 mm 3 mps 609 mmHg 30%
    17:00 +26°C° 0 mm 2 mps 609 mmHg 42%
    18:00 +24°C° 0 mm 2 mps 609 mmHg 54%
    19:00 +20°C° 0 mm 2 mps 609 mmHg 66%
    20:00 +20°C° 0 mm 1 mps 609 mmHg 69%
    21:00 +20°C° 0 mm 1 mps 609 mmHg 72%
    22:00 +19°C° 0 mm 1 mps 609 mmHg 75%
    23:00 +19°C° 0 mm 1 mps 609 mmHg 75%

    Tomorrow, 18 October, Friday

    Time Temperature Precipitation Wind Pressure Humidity
    00:00 +18°C° 0 mm 1 mps 609 mmHg 76%
    01:00 +18°C° 0 mm 1 mps 608 mmHg 77%
    02:00 +16°C° 0 mm 1 mps 608 mmHg 75%
    03:00 +16°C° 0 mm 1 mps 608 mmHg 74%
    04:00 +16°C° 0 mm 1 mps 607 mmHg 73%
    05:00 +16°C° 0 mm 0 mps 608 mmHg 67%
    06:00 +17°C° 0 mm 0 mps 609 mmHg 61%
    07:00 +18°C° 0 mm 0 mps 609 mmHg 55%
    08:00 +22°C° 0 mm 1 mps 610 mmHg 47%
    09:00 +25°C° 0 mm 2 mps 611 mmHg 38%
    10:00 +27°C° 0 mm 2 mps 612 mmHg 30%
    11:00 +28°C° 0 mm 2 mps 612 mmHg 27%
    12:00 +29°C° 0 mm 2 mps 611 mmHg 25%
    13:00 +30°C° 0 mm 3 mps 611 mmHg 22%
    14:00 +29°C° 0 mm 3 mps 610 mmHg 26%
    15:00 +28°C° 0 mm 4 mps 609 mmHg 30%
    16:00 +27°C° 0 mm 4 mps 609 mmHg 34%
    17:00 +25°C° 0 mm 3 mps 608 mmHg 43%
    18:00 +23°C° 0 mm 2 mps 608 mmHg 52%
    19:00 +20°C° 0 mm 2 mps 608 mmHg 61%
    20:00 +20°C° 0 mm 1 mps 608 mmHg 62%
    21:00 +20°C° 0 mm 1 mps 609 mmHg 63%
    22:00 +19°C° 0 mm 1 mps 609 mmHg 64%
    23:00 +19°C° 0 mm 1 mps 609 mmHg 65%

    Day after tomorrow, 19 October, Saturday

    Time Temperature Precipitation Wind Pressure Humidity
    00:00 +19°C° 0 mm 1 mps 608 mmHg 66%
    01:00 +16°C° 0 mm 0 mps 608 mmHg 66%
    02:00 +16°C° 0 mm 0 mps 607 mmHg 65%
    03:00 +18°C° 0 mm 1 mps 607 mmHg 64%
    04:00 +16°C° 0 mm 1 mps 607 mmHg 62%
    05:00 +18°C° 0 mm 1 mps 608 mmHg 59%
    06:00 +19°C° 0 mm 1 mps 608 mmHg 56%
    07:00 +20°C° 0 mm 1 mps 609 mmHg 52%
    08:00 +22°C° 0 mm 1 mps 610 mmHg 44%
    09:00 +25°C° 0 mm 2 mps 611 mmHg 36%
    10:00 +27°C° 0 mm 2 mps 611 mmHg 28%
    11:00 +28°C° 0 mm 3 mps 611 mmHg 26%
    12:00 +29°C° 0 mm 3 mps 611 mmHg 23%
    13:00 +30°C° 0 mm 3 mps 611 mmHg 20%
    14:00 +30°C° 0 mm 3 mps 610 mmHg 23%
    15:00 +29°C° 0 mm 3 mps 609 mmHg 26%
    16:00 +28°C° 0 mm 3 mps 608 mmHg 28%
    17:00 +26°C° 0 mm 3 mps 608 mmHg 38%
    18:00 +23°C° 0 mm 2 mps 608 mmHg 47%
    19:00 +20°C° 0 mm 2 mps 608 mmHg 57%
    20:00 +20°C° 0 mm 1 mps 608 mmHg 58%
    21:00 +20°C° 0 mm 1 mps 608 mmHg 60%
    22:00 +17°C° 0 mm 0 mps 608 mmHg 61%
    23:00 +17°C° 0 mm 0 mps 608 mmHg 60%

    20 October, Sunday

    Time Temperature Precipitation Wind Pressure Humidity
    00:00 +18°C° 0 mm 1 mps 608 mmHg 59%
    01:00 +18°C° 0 mm 1 mps 608 mmHg 58%
    02:00 +18°C° 0 mm 1 mps 607 mmHg 58%
    03:00 +16°C° 0 mm 1 mps 607 mmHg 59%
    04:00 +16°C° 0 mm 1 mps 607 mmHg 59%
    05:00 +18°C° 0 mm 1 mps 608 mmHg 55%
    06:00 +19°C° 0 mm 1 mps 609 mmHg 51%
    07:00 +20°C° 0 mm 1 mps 609 mmHg 47%
    08:00 +23°C° 0 mm 1 mps 610 mmHg 39%
    09:00 +25°C° 0 mm 2 mps 611 mmHg 32%
    10:00 +28°C° 0 mm 3 mps 612 mmHg 24%
    11:00 +29°C° 0 mm 3 mps 612 mmHg 21%
    12:00 +30°C° 0 mm 3 mps 611 mmHg 19%
    13:00 +31°C° 0 mm 3 mps 611 mmHg 16%
    14:00 +31°C° 0 mm 3 mps 610 mmHg 19%
    15:00 +30°C° 0 mm 3 mps 610 mmHg 21%
    16:00 +29°C° 0 mm 3 mps 609 mmHg 24%
    17:00 +27°C° 0 mm 2 mps 609 mmHg 35%
    18:00 +24°C° 0 mm 2 mps 608 mmHg 47%
    19:00 +21°C° 0 mm 1 mps 608 mmHg 58%
    20:00 +21°C° 0 mm 1 mps 608 mmHg 58%
    21:00 +20°C° 0 mm 1 mps 608 mmHg 58%
    22:00 +18°C° 0 mm 0 mps 608 mmHg 58%
    23:00 +20°C° 0 mm 1 mps 608 mmHg 57%

    21 October, Monday

    Time Temperature Precipitation Wind Pressure Humidity
    00:00 +19°C° 0 mm 1 mps 608 mmHg 55%
    01:00 +19°C° 0 mm 1 mps 608 mmHg 54%
    02:00 +18°C° 0 mm 1 mps 608 mmHg 58%
    03:00 +16°C° 0 mm 1 mps 607 mmHg 63%
    04:00 +16°C° 0 mm 1 mps 607 mmHg 67%
    05:00 +18°C° 0 mm 1 mps 608 mmHg 62%
    06:00 +19°C° 0 mm 1 mps 608 mmHg 56%
    07:00 +20°C° 0 mm 1 mps 609 mmHg 50%
    08:00 +23°C° 0 mm 1 mps 610 mmHg 42%
    09:00 +25°C° 0 mm 2 mps 611 mmHg 34%
    10:00 +28°C° 0 mm 2 mps 611 mmHg 26%
    11:00 +29°C° 0 mm 2 mps 611 mmHg 25%
    12:00 +30°C° 0 mm 2 mps 611 mmHg 23%
    13:00 +31°C° 0 mm 3 mps 611 mmHg 22%
    14:00 +30°C° 0 mm 3 mps 610 mmHg 27%
    15:00 +28°C° 0 mm 4 mps 609 mmHg 32%
    16:00 +27°C° 0 mm 4 mps 608 mmHg 37%
    17:00 +25°C° 0 mm 3 mps 608 mmHg 46%
    18:00 +22°C° 0 mm 3 mps 608 mmHg 55%
    19:00 +20°C° 0 mm 2 mps 608 mmHg 64%
    20:00 +19°C° 0 mm 2 mps 608 mmHg 66%
    21:00 +19°C° 0 mm 1 mps 608 mmHg 69%
    22:00 +18°C° 0 mm 1 mps 608 mmHg 72%
    23:00 +18°C° 0 mm 1 mps 608 mmHg 73%

    22 October, Tuesday

    Time Temperature Precipitation Wind Pressure Humidity
    00:00 +16°C° 0 mm 1 mps 608 mmHg 73%
    01:00 +16°C° 0 mm 1 mps 607 mmHg 74%
    02:00 +16°C° 0 mm 1 mps 607 mmHg 73%
    03:00 +15°C° 0 mm 1 mps 607 mmHg 73%
    04:00 +15°C° 0 mm 1 mps 607 mmHg 72%
    05:00 +16°C° 0 mm 1 mps 607 mmHg 65%
    06:00 +17°C° 0 mm 0 mps 608 mmHg 58%
    07:00 +18°C° 0 mm 0 mps 609 mmHg 52%
    08:00 +22°C° 0 mm 1 mps 610 mmHg 41%
    09:00 +25°C° 0 mm 2 mps 611 mmHg 30%
    10:00 +27°C° 0 mm 3 mps 612 mmHg 20%
    11:00 +28°C° 0 mm 3 mps 611 mmHg 20%
    12:00 +29°C° 0 mm 3 mps 611 mmHg 21%
    13:00 +29°C° 0 mm 3 mps 610 mmHg 22%
    14:00 +28°C° 0 mm 3 mps 609 mmHg 25%
    15:00 +27°C° 0 mm 4 mps 609 mmHg 29%
    16:00 +26°C° 0 mm 4 mps 608 mmHg 33%
    17:00 +23°C° 0 mm 4 mps 608 mmHg 41%
    18:00 +21°C° 0 mm 3 mps 607 mmHg 50%
    19:00 +18°C° 0 mm 2 mps 607 mmHg 59%
    20:00 +18°C° 0 mm 2 mps 607 mmHg 61%
    21:00 +18°C° 0 mm 1 mps 607 mmHg 64%
    22:00 +16°C° 0 mm 1 mps 607 mmHg 66%
    23:00 +16°C° 0 mm 1 mps 607 mmHg 64%
    Show more